Orlando International, FL

5:47 PM EDT on April 30, 2017 (GMT -0400)
Orlando International

Weather History for KMCO - February, 2012

Change the Weather History Date:

Tuesday, February 21, 2012

  Actual Average Record
Temperature  
Mean Temperature 63 °F 64 °F  
Max Temperature 77 °F 75 °F 88 °F (1989)
Min Temperature 49 °F 53 °F 33 °F (1977)
Degree Days  
Heating Degree Days 2 3  
Month to date heating degree days 51 94  
Since 1 July heating degree days 296 478  
Cooling Degree Days 0 2  
Month to date cooling degree days 70 42  
Year to date cooling degree days 89 87  
Growing Degree Days 12 (Base 50)    
Moisture  
Dew Point 50 °F    
Average Humidity 65    
Maximum Humidity 93    
Minimum Humidity 36    
Precipitation  
Precipitation 0.00 in 0.09 in 1.00 in (1984)
Month to date precipitation 0.99 1.76  
Year to date precipitation 1.12 4.11  
Sea Level Pressure  
Sea Level Pressure 30.19 in    
Wind  
Wind Speed 5 mph (East)    
Max Wind Speed 10 mph    
Max Gust Speed 14 mph    
Visibility 10 miles    
Events      
T = Trace of Precipitation, MM = Missing Value Source: NWS Daily Summary

Daily Weather History Graph

Daily Weather History Graph

Search for Another Location

Airport or City:

Trip Planner

Search our weather history database for the weather conditions in past years. The results will help you decide how hot, cold, wet, or windy it might be!

Date:

Astronomy

Feb. 21, 2012 Rise Set
Actual Time 6:58 AM EST 6:19 PM EST
Civil Twilight 6:34 AM EST 6:43 PM EST
Nautical Twilight 6:07 AM EST 7:11 PM EST
Astronomical Twilight 5:39 AM EST 7:38 PM EST
Moon 6:29 AM EST (2/21) 6:19 PM EST (2/21)
Length of Visible Light 12h 09m
Length of Day
11h 21m
Waning Crescent, 0% of the Moon is Illuminated
Feb 21
Waning Crescent
Feb 21
New
Feb 29
First Quarter
Mar 8
Full
Mar 14
Last Quarter

Hourly Weather History & Observations

Time (EST) Temp. Dew Point Humidity Pressure Visibility Wind Dir Wind Speed Gust Speed Precip Events Conditions
12:53 AM 53.1 °F 46.9 °F 80% 30.24 in 10.0 mi NNW 4.6 mph - N/A   Mostly Cloudy
1:53 AM 52.0 °F 48.0 °F 86% 30.21 in 10.0 mi North 5.8 mph - N/A   Scattered Clouds
2:53 AM 52.0 °F 48.0 °F 86% 30.20 in 10.0 mi North 4.6 mph - N/A   Scattered Clouds
3:53 AM 51.1 °F 48.0 °F 89% 30.19 in 10.0 mi North 5.8 mph - N/A   Scattered Clouds
4:53 AM 51.1 °F 48.0 °F 89% 30.19 in 10.0 mi North 4.6 mph - N/A   Scattered Clouds
5:53 AM 50.0 °F 46.9 °F 89% 30.20 in 10.0 mi Calm Calm - N/A   Scattered Clouds
6:53 AM 50.0 °F 48.0 °F 93% 30.22 in 10.0 mi North 5.8 mph - N/A   Scattered Clouds
7:53 AM 54.0 °F 51.1 °F 90% 30.22 in 10.0 mi East 3.5 mph - N/A   Scattered Clouds
8:53 AM 60.1 °F 53.1 °F 78% 30.22 in 10.0 mi East 4.6 mph - N/A   Mostly Cloudy
9:53 AM 70.0 °F 52.0 °F 53% 30.24 in 10.0 mi SE 5.8 mph - N/A   Mostly Cloudy
10:53 AM 72.0 °F 51.1 °F 48% 30.26 in 10.0 mi ESE 6.9 mph - N/A   Scattered Clouds
11:53 AM 73.9 °F 48.9 °F 41% 30.24 in 10.0 mi Variable 4.6 mph - N/A   Mostly Cloudy
12:53 PM 73.9 °F 48.0 °F 40% 30.20 in 10.0 mi NW 4.6 mph - N/A   Mostly Cloudy
1:53 PM 75.9 °F 48.0 °F 37% 30.18 in 10.0 mi South 4.6 mph - N/A   Mostly Cloudy
2:53 PM 75.0 °F 46.9 °F 37% 30.16 in 10.0 mi Variable 3.5 mph - N/A   Mostly Cloudy
3:53 PM 75.0 °F 48.0 °F 38% 30.15 in 10.0 mi Calm Calm - N/A   Mostly Cloudy
4:53 PM 75.0 °F 46.0 °F 36% 30.14 in 10.0 mi SSE 5.8 mph - N/A   Mostly Cloudy
5:53 PM 73.9 °F 46.0 °F 37% 30.13 in 10.0 mi Calm Calm - N/A   Mostly Cloudy
6:53 PM 66.9 °F 53.1 °F 61% 30.14 in 10.0 mi ESE 8.1 mph - N/A   Mostly Cloudy
7:53 PM 66.0 °F 55.0 °F 68% 30.14 in 10.0 mi ESE 8.1 mph - N/A   Scattered Clouds
8:53 PM 64.9 °F 55.0 °F 70% 30.15 in 10.0 mi SE 8.1 mph - N/A   Scattered Clouds
9:53 PM 64.0 °F 55.0 °F 73% 30.15 in 10.0 mi SSE 8.1 mph - N/A   Scattered Clouds
10:53 PM 61.0 °F 55.0 °F 81% 30.15 in 10.0 mi South 5.8 mph - N/A   Scattered Clouds
11:53 PM 63.0 °F 55.0 °F 75% 30.15 in 10.0 mi SSW 6.9 mph - N/A   Mostly Cloudy